sat.trackr.live / text

‹ back to catalog

GONETS-M 13

NORAD 40554 · 2015-020C

PAYLOAD ACTIVE UNKNOWN

§ Identity

Operator
Country
CIS
Launch date
2015-03-31
Launch site
PLMSC
Launch vehicle
Mass (kg)
RCS (m²)
1.59

External: N2YO · Heavens-Above · Gunter

§ Orbital elements

Epoch: 2026-05-25T04:11:06.851904Z

Period
115.86 min
Inclination
82.4875°
Eccentricity
0.0014640
Mean motion
12.42869054 rev/d
Perigee alt
1,482.9 km
Apogee alt
1,506.0 km
Semi-major
7,872.6 km
B*
-6.2984e-4
RAAN
45.0691°
Arg perigee
25.4271°
Mean anomaly
334.7526°
Rev number
50,584

§ Raw data

GONETS-M 131 40554U 15020C   26145.17438486 -.00000077  00000+0 -62984-3 0  99922 40554  82.4875  45.0691 0014640  25.4271 334.7526 12.42869054505848

JSON: /api/v1/satellites/40554 · /tle

For live sub-satellite position, see the globe view (requires WebGL).

§ Visibility from observer

Set your observer location to see the next 7 days of passes ≥ 10°. The values pass through the URL so the page stays shareable.

No JS? Fill the form by hand. The geolocation button needs JavaScript.

§ Radio — SatNOGS DB

ModeDescriptionDownlinkUplink
FM Telemetry 265.059 MHz
FM UHF Unknown 387.062 MHz
FM UHF Unknown 387.625 MHz
FM UHF Unknown 387.837 MHz

4 transmitters · refreshed weekly from db.satnogs.org